Weather History for Sisseton, SD

Change the Weather History Date:

Thursday, July 7, 2011

  Actual Average Record
Temperature  
Mean Temperature 75 °F 71 °F  
Max Temperature 86 °F 82 °F 104 °F (1936)
Min Temperature 63 °F 59 °F 41 °F (1934)
Degree Days  
Heating Degree Days 0 0  
Month to date heating degree days 0 3  
Since 1 June heating degree days 55 65  
Since 1 July heating degree days 0 3  
Cooling Degree Days 10 6  
Month to date cooling degree days 62 41  
Year to date cooling degree days 165 158  
Since 1 June cooling degree days 156 135  
Growing Degree Days 24 (Base 50)    
Moisture  
Dew Point 64 °F    
Average Humidity 71    
Maximum Humidity 90    
Minimum Humidity 51    
Precipitation  
Precipitation 0.03 in 0.12 in 2.34 in (1994)
Month to date precipitation 0.97 0.79  
Year to date precipitation 13.11 11.51  
Sea Level Pressure  
Sea Level Pressure 29.88 in    
Wind  
Wind Speed 4 mph (South)    
Max Wind Speed 12 mph    
Max Gust Speed 15 mph    
T = Trace of Precipitation, MM = Missing Value Source: NWS Daily Summary

Daily Weather History Graph

Daily Weather History Graph

Search for Another Location

Airport:

Trip Planner

Search our weather history database for the weather conditions in past years. The results will help you decide how hot, cold, wet, or windy it might be!

Date:

Astronomy

Jul. 07, 2011 Rise Set
Actual Time 5:46 AM CDT 9:19 PM CDT
Civil Twilight 5:08 AM CDT 9:56 PM CDT
Nautical Twilight 4:19 AM CDT 10:46 PM CDT
Astronomical Twilight 3:13 AM CDT 11:51 PM CDT
Moon 1:25 PM CDT (7/7) 12:01 AM CDT (7/7)
Length of Visible Light 16h 47m
Length of Day
15h 32m
Waxing Crescent, 44% of the Moon is Illuminated
Jul 7
Waxing Crescent
Jul 8
First Quarter
Jul 15
Full
Jul 23
Last Quarter
Jul 30
New

Hourly Weather History & Observations

Time (CDT) Temp. Heat Index Dew Point Humidity Pressure Visibility Wind Dir Wind Speed Gust Speed Precip Events Conditions
12:56 AM 69.1 °F - 63.0 °F 81% 29.93 in - Calm Calm - N/A   Unknown
1:56 AM 69.1 °F - 63.0 °F 81% 29.93 in - SSW 4.6 mph - N/A   Unknown
2:56 AM 66.9 °F - 63.0 °F 87% 29.93 in - SSW 4.6 mph - N/A   Unknown
3:56 AM 64.9 °F - 60.1 °F 84% 29.92 in - Calm Calm - 0.03 in   Unknown
4:56 AM 64.9 °F - 60.1 °F 84% 29.92 in - SSE 3.5 mph - N/A   Unknown
5:56 AM 64.0 °F - 59.0 °F 84% 29.92 in - SSW 6.9 mph - N/A   Unknown
6:56 AM 64.9 °F - 60.1 °F 84% 29.92 in - SSW 4.6 mph - N/A   Unknown
7:56 AM 69.1 °F - 60.1 °F 73% 29.91 in - SSW 5.8 mph - N/A   Unknown
8:56 AM 72.0 °F - 61.0 °F 68% 29.91 in - South 8.1 mph - N/A   Unknown
9:56 AM 75.0 °F - 63.0 °F 66% 29.91 in - SSW 11.5 mph - N/A   Unknown
10:56 AM 78.1 °F - 64.0 °F 62% 29.90 in - North - - N/A   Unknown
11:56 AM 81.0 °F 82.7 °F 64.9 °F 58% 29.89 in - South 3.5 mph - N/A   Unknown
12:56 PM 81.0 °F 82.7 °F 64.9 °F 58% 29.88 in - Variable 4.6 mph - N/A   Unknown
1:56 PM 82.0 °F 83.1 °F 63.0 °F 52% 29.86 in - Calm Calm - N/A   Unknown
2:56 PM 84.0 °F 85.8 °F 64.9 °F 53% 29.84 in - ENE 6.9 mph - N/A   Unknown
3:56 PM 80.1 °F 81.9 °F 64.9 °F 60% 29.84 in - East 3.5 mph - N/A   Unknown
4:56 PM 84.0 °F 85.8 °F 64.9 °F 53% 29.83 in - Variable 4.6 mph - N/A   Unknown
5:56 PM 82.9 °F 85.0 °F 66.0 °F 56% 29.83 in - ENE 4.6 mph - N/A   Unknown
6:56 PM 82.9 °F 84.4 °F 64.0 °F 53% 29.82 in - East 5.8 mph - N/A   Unknown
7:56 PM 81.0 °F 83.0 °F 66.0 °F 60% 29.81 in - SE 3.5 mph - N/A   Unknown
8:56 PM 78.1 °F - 68.0 °F 71% 29.82 in - Calm Calm - N/A   Unknown
9:56 PM 73.9 °F - 68.0 °F 82% 29.83 in - SSW 3.5 mph - N/A   Unknown
10:56 PM 72.0 °F - 68.0 °F 87% 29.83 in - Calm Calm - N/A   Unknown
11:56 PM 70.0 °F - 66.9 °F 90% 29.83 in - Calm Calm - N/A   Unknown